Lid_Strength_Index
1 1 1 1 1 0 0 0 0 0 0 0 0 -0 -0 -0 0 1 5 2 1 -2 -0 2 3 3 3 4 4 4 8 9 8 8 8 6 6 5 4 5 4 4 4 3 3
1 1 1 1 1 0 0 0 0 0 0 0 0 0 0 0 2 4 1 -0 -3 -1 3 4 4 4 5 5 4 6 8 8 6 6 7 6 6 6 6 5 5 4 3 3 3
1 1 1 1 0 0 0 0 0 0 0 0 0 0 0 0 4 5 -1 -2 -2 -1 2 3 3 4 6 5 5 6 8 7 6 6 6 7 7 6 7 7 5 5 4 3 3
1 1 1 1 0 0 0 -0 -0 -0 -0 0 0 0 0 2 9 4 -2 -2 -2 1 3 4 4 6 6 7 5 8 7 7 6 6 7 7 6 7 7 6 4 4 4 4 4
1 1 1 1 1 0 0 -0 -0 -0 0 0 0 0 2 6 6 -0 -2 -2 1 3 4 5 6 6 7 7 6 7 7 7 6 6 7 7 7 8 7 5 5 5 5 5 4
0 1 1 1 1 0 0 -0 -0 -0 0 0 0 1 4 7 4 -0 -1 1 3 4 4 4 5 5 6 7 8 7 8 8 7 7 7 8 8 7 7 6 6 6 6 5 5
1 1 1 1 0 0 0 0 0 0 1 0 0 1 5 6 3 1 1 2 3 3 5 4 4 6 6 8 7 8 10 9 8 8 8 8 10 9 7 6 7 7 6 6 5
1 1 2 1 1 1 0 0 1 1 1 1 1 3 7 5 3 3 3 4 3 3 4 5 5 6 7 7 8 10 9 12 8 9 9 9 12 8 6 7 7 7 7 6 6
1 1 1 1 1 1 1 1 2 1 1 1 3 4 8 5 6 5 5 6 5 5 6 6 6 7 8 10 11 10 13 11 10 8 9 10 11 8 7 7 8 7 7 6 6
2 2 2 2 2 1 1 3 2 2 2 2 4 8 7 8 7 7 6 6 7 7 8 8 8 10 10 11 14 12 11 11 11 9 9 11 11 9 8 8 8 7 7 7 6
1 1 1 1 1 1 2 3 3 5 4 5 5 6 5 7 6 7 6 7 7 8 10 9 11 12 10 9 10 10 11 12 10 9 10 10 11 10 9 9 9 8 8 7 7
1 1 1 1 1 1 2 3 5 6 7 3 4 6 5 7 8 8 7 9 9 10 9 11 13 10 9 9 11 11 12 12 10 9 10 11 12 10 10 9 8 8 8 8 8
1 1 1 1 1 1 3 5 5 6 8 6 7 7 8 7 8 8 8 9 10 11 11 12 11 9 11 11 12 11 12 12 12 11 10 12 13 11 9 8 8 8 8 9 9
2 2 2 2 3 2 4 5 5 6 10 9 10 10 10 9 11 9 8 9 10 11 11 11 11 12 12 12 11 14 10 11 13 14 15 12 17 12 10 9 10 9 10 10 10
4 3 2 4 2 3 5 5 5 7 18 10 11 8 9 11 10 10 8 9 11 11 11 12 12 12 13 12 11 13 12 13 13 14 14 13 15 12 10 11 11 11 10 10 10
5 4 3 2 1 3 4 5 5 11 19 10 11 11 12 11 11 10 10 9 9 11 11 10 10 11 11 10 11 11 12 12 12 13 16 13 13 13 11 11 12 11 11 10 10
6 6 3 2 3 2 2 3 12 16 9 11 11 11 11 12 12 11 11 11 11 12 12 10 11 9 10 12 11 12 13 15 17 16 17 13 13 12 10 10 10 11 11 10 10
7 6 4 1 1 1 2 8 17 12 11 8 9 10 10 10 9 10 10 10 8 10 11 13 14 11 11 11 11 12 11 16 22 20 17 12 16 12 8 10 10 10 10 10 10
7 4 5 3 1 1 5 13 13 11 9 9 9 11 11 9 9 9 9 10 8 8 12 12 12 9 10 10 9 11 14 10 16 16 19 14 12 9 7 10 10 10 11 11 11
6 6 6 3 1 3 9 12 11 9 8 8 12 10 12 11 11 11 10 8 9 8 7 11 16 10 9 9 9 11 10 14 14 20 20 15 14 13 11 10 10 11 12 12 11
7 10 6 3 2 7 13 13 11 9 8 9 10 11 10 11 10 10 10 8 8 8 7 10 12 12 9 10 11 11 12 11 13 15 19 20 16 8 9 9 10 12 12 12 13
8 13 4 2 10 10 12 11 9 9 7 8 8 9 10 9 10 10 10 8 6 7 10 8 11 15 12 8 7 9 11 11 16 17 16 16 16 9 9 10 10 12 12 12 12
9 8 3 4 12 11 9 9 7 8 8 8 9 8 7 9 11 9 9 6 7 8 10 9 12 16 15 10 9 12 11 12 12 14 17 19 16 9 10 11 11 11 12 12 12
8 12 7 6 6 10 10 10 9 7 7 7 9 8 8 10 8 10 9 8 7 7 7 7 11 14 17 12 10 13 11 11 13 17 15 16 14 10 9 9 10 12 12 13 13
10 12 9 10 9 8 9 10 11 11 8 7 9 9 10 11 11 11 9 8 7 8 7 8 14 12 11 10 11 12 12 12 13 12 16 14 13 10 8 9 11 13 13 13 13
11 11 10 9 8 8 9 10 11 10 10 11 10 9 9 11 10 12 10 10 10 9 10 8 13 11 14 11 11 12 11 11 11 11 11 11 12 8 9 10 10 10 11 12 12
9 8 9 11 10 10 10 9 10 9 10 9 9 10 11 10 8 8 8 9 9 10 11 11 12 13 16 13 13 16 14 12 11 11 11 13 11 11 11 11 11 11 11 11 11